Meriden, CT

12:47 PM EST on January 19, 2018 (GMT -0500)
Meriden Markham Municipal

Weather History for KMMK - November, 2012

Change the Weather History Date:

Tuesday, November 27, 2012

  Actual Average (KOXC) Record (KOXC)
Temperature  
Mean Temperature 30 °F -  
Max Temperature 34 °F 43 °F 62 °F (2015)
Min Temperature 26 °F 29 °F 21 °F (1996)
Degree Days  
Heating Degree Days 35    
Moisture  
Dew Point 30 °F    
Average Humidity 90    
Maximum Humidity 96    
Minimum Humidity 79    
Precipitation  
Precipitation 0.14 in - - ()
Sea Level Pressure  
Sea Level Pressure 30.28 in    
Wind  
Wind Speed 1 mph (North)    
Max Wind Speed 6 mph    
Max Gust Speed -    
Visibility 4 miles    
Events Snow    
Averages and records for this station are not official NWS values.
T = Trace of Precipitation, MM = Missing Value Source: NWS Daily Summary

Daily Weather History Graph

Daily Weather History Graph

Search for Another Location

Airport or City:

Trip Planner

Search our weather history database for the weather conditions in past years. The results will help you decide how hot, cold, wet, or windy it might be!

Date:

Astronomy

Nov. 27, 2012 Rise Set
Actual Time 6:54 AM EST 4:23 PM EST
Civil Twilight 6:23 AM EST 4:54 PM EST
Nautical Twilight 5:49 AM EST 5:28 PM EST
Astronomical Twilight 5:16 AM EST 6:01 PM EST
Moon 3:53 PM EST (11/27) 5:56 AM EST (11/27)
Length of Visible Light 10h 30m
Length of Day
9h 28m
Waxing Gibbous, 99% of the Moon is Illuminated
Nov 27
Waxing Gibbous
Nov 28
Full
Dec 6
Last Quarter
Dec 13
New
Dec 20
First Quarter

Hourly Weather History & Observations

Time (EST) Temp. Windchill Dew Point Humidity Pressure Visibility Wind Dir Wind Speed Gust Speed Precip Events Conditions
12:53 AM 26.1 °F - 21.9 °F 84% 30.27 in 10.0 mi Calm Calm - N/A   Clear
1:53 AM 27.0 °F - 23.0 °F 85% 30.28 in 10.0 mi Calm Calm - N/A   Mostly Cloudy
2:53 AM 28.0 °F - 24.1 °F 85% 30.28 in 10.0 mi Calm Calm - N/A   Partly Cloudy
3:53 AM 28.9 °F - 26.1 °F 89% 30.28 in 10.0 mi Calm Calm - N/A   Overcast
4:53 AM 30.9 °F - 25.0 °F 79% 30.28 in 10.0 mi Calm Calm - N/A   Overcast
5:53 AM 30.9 °F 27.5 °F 26.1 °F 82% 30.29 in 10.0 mi North 3.5 mph - N/A   Overcast
6:53 AM 30.9 °F - 26.1 °F 82% 30.29 in 10.0 mi Calm Calm - N/A   Overcast
7:53 AM 32.0 °F 28.7 °F 27.0 °F 82% 30.32 in 9.0 mi SSE 3.5 mph - N/A   Overcast
8:39 AM 33.8 °F - 28.4 °F 81% 30.32 in 3.0 mi Calm Calm - 0.00 in Snow Light Snow
8:46 AM 33.8 °F - 28.4 °F 81% 30.32 in 2.5 mi Calm Calm - 0.00 in Snow Light Snow
8:53 AM 33.1 °F - 28.9 °F 85% 30.33 in 2.0 mi Calm Calm - 0.00 in Snow Light Snow
9:15 AM 33.8 °F - 30.2 °F 87% 30.32 in 1.2 mi Calm Calm - 0.01 in Snow Light Snow
9:49 AM 33.8 °F - 30.2 °F 87% 30.32 in 0.8 mi Calm Calm - 0.02 in Snow Light Snow
9:53 AM 33.1 °F - 30.9 °F 92% 30.32 in 0.8 mi Calm Calm - 0.02 in Snow Light Snow
10:07 AM 33.8 °F - 30.2 °F 87% 30.32 in 1.0 mi Calm Calm - 0.00 in Snow Light Snow
10:38 AM 33.8 °F - 32.0 °F 93% 30.31 in 1.2 mi Calm Calm - 0.00 in Snow Light Snow
10:53 AM 34.0 °F - 32.0 °F 92% 30.32 in 1.5 mi Calm Calm - 0.00 in Snow Light Snow
11:00 AM 33.8 °F - 32.0 °F 93% 30.31 in 1.2 mi Calm Calm - 0.00 in Snow Light Snow
11:18 AM 33.8 °F - 32.0 °F 93% 30.30 in 0.8 mi Calm Calm - 0.01 in Snow Light Snow
11:49 AM 33.8 °F - 30.2 °F 87% 30.30 in 0.8 mi Calm Calm - 0.03 in Snow Light Snow
11:53 AM 33.1 °F - 30.9 °F 92% 30.30 in 0.8 mi Calm Calm - 0.03 in Snow Light Snow
12:01 PM 33.8 °F - 32.0 °F 93% 30.29 in 0.8 mi Calm Calm - 0.00 in Snow Light Snow
12:15 PM 33.8 °F - 32.0 °F 93% 30.29 in 1.0 mi Calm Calm - 0.01 in Snow Light Snow
12:23 PM 33.8 °F - 30.2 °F 87% 30.28 in 0.8 mi Calm Calm - 0.01 in Snow Light Snow
12:32 PM 33.8 °F - 32.0 °F 93% 30.28 in 1.0 mi Calm Calm - 0.01 in Snow Light Snow
12:53 PM 33.1 °F - 32.0 °F 96% 30.28 in 1.5 mi Calm Calm - 0.01 in Snow Light Snow
1:53 PM 34.0 °F - 32.0 °F 92% 30.26 in 1.2 mi Calm Calm - 0.03 in Snow Light Snow
3:49 PM 33.8 °F 29.6 °F 32.0 °F 93% 30.24 in 2.0 mi NNE 4.6 mph - 0.01 in Snow Light Snow
3:53 PM 34.0 °F 31.0 °F 32.0 °F 92% 30.25 in 2.5 mi Variable 3.5 mph - 0.01 in Snow Light Snow
4:53 PM 33.1 °F 30.0 °F 32.0 °F 96% 30.25 in 2.0 mi NNW 3.5 mph - 0.02 in Snow Light Snow
5:07 PM 33.8 °F - 32.0 °F 93% 30.24 in 1.8 mi Calm Calm - 0.00 in Snow Light Snow
5:49 PM 33.8 °F 30.8 °F 32.0 °F 93% 30.25 in 2.0 mi NNW 3.5 mph - 0.02 in Snow Light Snow
5:53 PM 33.1 °F 28.7 °F 32.0 °F 96% 30.25 in 2.0 mi North 4.6 mph - 0.02 in Snow Light Snow
6:21 PM 33.8 °F 29.6 °F 32.0 °F 93% 30.24 in 3.0 mi North 4.6 mph - 0.00 in Snow Light Snow
6:53 PM 34.0 °F - 32.0 °F 92% 30.25 in 4.0 mi Calm Calm - 0.00 in Snow Light Snow
7:53 PM 34.0 °F 31.0 °F 32.0 °F 92% 30.25 in 4.0 mi North 3.5 mph - 0.00 in Snow Light Snow
8:53 PM 34.0 °F 31.0 °F 32.0 °F 92% 30.25 in 5.0 mi Variable 3.5 mph - 0.00 in   Overcast
9:53 PM 34.0 °F 29.8 °F 32.0 °F 92% 30.24 in 6.0 mi North 4.6 mph - 0.00 in   Overcast
10:53 PM 34.0 °F 31.0 °F 32.0 °F 92% 30.24 in 6.0 mi NNE 3.5 mph - N/A   Overcast
11:16 PM 33.8 °F 28.6 °F 32.0 °F 93% 30.23 in 7.0 mi North 5.8 mph - N/A   Overcast
11:53 PM 34.0 °F 31.0 °F 32.0 °F 92% 30.22 in 7.0 mi North 3.5 mph - N/A   Overcast